Erzurum, Turkey

1:19 AM +03 on July 26, 2017 (GMT +0300)
Erzurum

Weather History for LTCE - September, 2013

Change the Weather History Date:

Sunday, September 15, 2013

  Actual Average Record
Temperature  
Mean Temperature 59 °F -  
Max Temperature 81 °F 65 °F 81 °F (2013)
Min Temperature 37 °F 40 °F 35 °F (2002)
Degree Days  
Heating Degree Days 6    
Growing Degree Days 9 (Base 50)    
Moisture  
Dew Point 28 °F    
Average Humidity 31    
Maximum Humidity 65    
Minimum Humidity 5    
Precipitation  
Precipitation 0.00 in 0.04 in - ()
Sea Level Pressure  
Sea Level Pressure 29.99 in    
Wind  
Wind Speed 5 mph ()    
Max Wind Speed 14 mph    
Max Gust Speed 25 mph    
Visibility 7.8 miles    
Events      
Averages and records for this station are not official NWS values.
T = Trace of Precipitation, MM = Missing Value Source: Averaged Metar Reports

Daily Weather History Graph

Daily Weather History Graph

Search for Another Location

Airport or City:

Trip Planner

Search our weather history database for the weather conditions in past years. The results will help you decide how hot, cold, wet, or windy it might be!

Date:

Astronomy

Sep. 15, 2013 Rise Set
Actual Time 5:56 AM EEST 6:24 PM EEST
Civil Twilight 5:29 AM EEST 6:51 PM EEST
Nautical Twilight 4:57 AM EEST 7:23 PM EEST
Astronomical Twilight 4:24 AM EEST 7:55 PM EEST
Moon 3:35 PM EEST (9/15) 1:09 AM EEST (9/15)
Length of Visible Light 13h 22m
Length of Day
12h 27m
Waxing Gibbous, 79% of the Moon is Illuminated
Sep 15
Waxing Gibbous
Sep 19
Full
Sep 27
Last Quarter
Oct 5
New
Oct 12
First Quarter

Hourly Weather History & Observations

Time (EEST) Temp. Windchill Dew Point Humidity Pressure Visibility Wind Dir Wind Speed Gust Speed Precip Events Conditions
12:20 AM 48.2 °F - 32.0 °F 54% 30.09 in - Variable 2.3 mph - N/A   Clear
12:50 AM 46.4 °F - 32.0 °F 57% 30.09 in - Variable 2.3 mph - N/A   Clear
1:20 AM 46.4 °F - 30.2 °F 53% 30.09 in - Variable 1.2 mph - N/A   Clear
1:50 AM 44.6 °F - 30.2 °F 57% 30.09 in - Variable 1.2 mph - N/A   Clear
2:20 AM 44.6 °F - 28.4 °F 53% 30.06 in - Variable 1.2 mph - N/A   Clear
2:50 AM 42.8 °F - 30.2 °F 61% 30.06 in - Variable 1.2 mph - N/A   Clear
3:20 AM 42.8 °F - 30.2 °F 61% 30.06 in - Variable 1.2 mph - N/A   Clear
3:50 AM 42.8 °F - 30.2 °F 61% 30.06 in - Variable 1.2 mph - N/A   Clear
4:20 AM 44.6 °F 42.2 °F 30.2 °F 57% 30.06 in - West 4.6 mph - N/A   Clear
4:50 AM 41.0 °F - 30.2 °F 65% 30.06 in - Variable 1.2 mph - N/A   Clear
5:20 AM 41.0 °F - 28.4 °F 61% 30.06 in - Variable 2.3 mph - N/A   Clear
5:50 AM 41.0 °F - 28.4 °F 61% 30.06 in - Variable 2.3 mph - N/A   Clear
6:20 AM 41.0 °F - 28.4 °F 61% 30.06 in - Variable 1.2 mph - N/A   Clear
6:50 AM 44.6 °F - 30.2 °F 57% 30.06 in - Variable 1.2 mph - N/A   Clear
7:20 AM 48.2 °F - 32.0 °F 54% 30.06 in - Calm Calm - N/A   Clear
7:50 AM 55.4 °F - 30.2 °F 38% 30.06 in - Calm Calm - N/A   Clear
8:20 AM 60.8 °F - 33.8 °F 36% 30.04 in - Variable 2.3 mph - N/A   Clear
8:50 AM 64.4 °F - 33.8 °F 32% 30.04 in - NE 5.8 mph - N/A   Clear
9:00 AM 65 °F - 35 °F 21%  in 12 mi NE 5.8 mph - -  
9:20 AM 69.8 °F - 33.8 °F 27% 30.04 in - ENE 5.8 mph - N/A   Clear
9:50 AM 71.6 °F - 32.0 °F 23% 30.04 in - NE 5.8 mph - N/A   Clear
10:20 AM 75.2 °F - 28.4 °F 18% 30.01 in - South 9.2 mph - N/A   Clear
10:50 AM 77.0 °F - 28.4 °F 17% 30.01 in - South 9.2 mph - N/A   Clear
11:20 AM 77.0 °F - 28.4 °F 17% 30.01 in - South 9.2 mph - N/A   Clear
11:50 AM 78.8 °F - 28.4 °F 16% 29.98 in - South 11.5 mph - N/A   Clear
12:20 PM 78.8 °F - 24.8 °F 14% 29.98 in - SW 11.5 mph - N/A   Clear
12:50 PM 78.8 °F - 24.8 °F 14% 29.95 in - SSW 12.7 mph - N/A   Clear
1:20 PM 78.8 °F - 21.2 °F 12% 29.95 in - SSW 13.8 mph - N/A   Clear
1:50 PM 80.6 °F - 23.0 °F 12% 29.95 in - SSW 11.5 mph 24.2 mph N/A   Clear
2:20 PM 78.8 °F - 23.0 °F 13% 29.92 in - SSW 13.8 mph 25.3 mph N/A   Clear
2:50 PM 78.8 °F - 24.8 °F 14% 29.92 in - SW 12.7 mph - N/A   Clear
3:00 PM 80 °F - 22 °F 5%  in 12 mi SW 12.7 mph - -  
3:20 PM 78.8 °F - 26.6 °F 15% 29.92 in - SSW 12.7 mph - N/A   Clear
3:50 PM 78.8 °F - 24.8 °F 14% 29.92 in 6.2 mi SSW 11.5 mph - N/A   Partly Cloudy
4:20 PM 78.8 °F - 24.8 °F 14% 29.92 in 6.2 mi SSW 12.7 mph - N/A   Partly Cloudy
4:50 PM 77.0 °F - 24.8 °F 14% 29.92 in 6.2 mi SW 11.5 mph - N/A   Partly Cloudy
5:20 PM 77.0 °F - 23.0 °F 13% 29.89 in 6.2 mi SSW 11.5 mph - N/A   Partly Cloudy
5:50 PM 73.4 °F - 24.8 °F 16% 29.89 in 6.2 mi SSW 10.4 mph - N/A   Partly Cloudy
6:20 PM 71.6 °F - 26.6 °F 19% 29.92 in 6.2 mi SSW 8.1 mph - N/A   Partly Cloudy
6:50 PM 68.0 °F - 28.4 °F 23% 29.92 in 6.2 mi SW 6.9 mph - N/A   Partly Cloudy
7:20 PM 68.0 °F - 30.2 °F 24% 29.92 in 6.2 mi SSW 8.1 mph - N/A   Partly Cloudy
7:50 PM 66.2 °F - 28.4 °F 24% 29.92 in - SSW 8.1 mph - N/A   Clear
8:20 PM 66.2 °F - 28.4 °F 24% 29.92 in - SSW 9.2 mph - N/A   Clear
8:50 PM 64.4 °F - 28.4 °F 26% 29.92 in - South 6.9 mph - N/A   Clear
9:00 PM 65 °F - 28 °F 14%  in 12 mi South 6.9 mph - -  
9:20 PM 64.4 °F - 26.6 °F 24% 29.92 in - SSW 6.9 mph - N/A   Clear
9:50 PM 64.4 °F - 28.4 °F 26% 29.92 in - SSW 5.8 mph - N/A   Clear
10:20 PM 62.6 °F - 28.4 °F 27% 29.92 in - West 9.2 mph - N/A   Clear
10:50 PM 66.2 °F - 28.4 °F 24% 29.95 in - WSW 9.2 mph - N/A   Clear
11:20 PM 64.4 °F - 28.4 °F 26% 29.95 in - WSW 11.5 mph - N/A   Clear
11:50 PM 59.0 °F - 28.4 °F 31% 29.95 in - WSW 6.9 mph - N/A   Clear